Fecha, hora, temperatura, viento dirección y velocidad, humedad y presión.

  • 23-01-2020 21:00:00 | 1.20°C | Sur |22.00 km/h | 70.00% | 0.00 hPa
  • 23-01-2020 20:00:00 | 1.00°C | Sur |12.00 km/h | 73.00% | 0.00 hPa
  • 23-01-2020 19:00:00 | 0.70°C | Sur |6.00 km/h | 74.00% | 0.00 hPa
  • 23-01-2020 18:00:00 | 1.70°C | Sur |6.00 km/h | 69.00% | 0.00 hPa
  • 23-01-2020 17:00:00 | 2.50°C | Sur |13.00 km/h | 65.00% | 0.00 hPa
  • 23-01-2020 16:00:00 | 2.80°C | Sur |10.00 km/h | 70.00% | 0.00 hPa
  • 23-01-2020 15:00:00 | 1.80°C | Sur |10.00 km/h | 75.00% | 0.00 hPa
  • 23-01-2020 14:00:00 | 1.40°C | Sur |12.00 km/h | 77.00% | 0.00 hPa
  • 23-01-2020 13:00:00 | 0.70°C | Sur |18.00 km/h | 78.00% | 0.00 hPa
  • 23-01-2020 12:00:00 | 0.00°C | Sur |26.00 km/h | 78.00% | 0.00 hPa
  • 23-01-2020 11:00:00 | -0.60°C | Sur |24.00 km/h | 79.00% | 0.00 hPa
  • 23-01-2020 10:00:00 | -0.80°C | Sur |26.00 km/h | 80.00% | 0.00 hPa
  • 23-01-2020 09:00:00 | -1.10°C | Sur |19.00 km/h | 80.00% | 0.00 hPa
  • 23-01-2020 08:00:00 | -1.20°C | Sur |21.00 km/h | 82.00% | 0.00 hPa
  • 23-01-2020 07:00:00 | -0.90°C | Sur |11.00 km/h | 85.00% | 0.00 hPa
  • 23-01-2020 06:00:00 | -0.70°C | Sur |10.00 km/h | 87.00% | 0.00 hPa
  • 23-01-2020 05:00:00 | -0.70°C | Sur |8.00 km/h | 87.00% | 0.00 hPa
  • 23-01-2020 04:00:00 | -0.30°C | Sudeste |8.00 km/h | 87.00% | 0.00 hPa
  • 23-01-2020 03:00:00 | -0.30°C | Sudeste |10.00 km/h | 87.00% | 0.00 hPa
  • 23-01-2020 02:00:00 | -0.30°C | Sudeste |14.00 km/h | 83.00% | 0.00 hPa
  • 23-01-2020 01:00:00 | 0.00°C | Sur |15.00 km/h | 82.00% | 0.00 hPa
  • 23-01-2020 00:00:00 | 0.00°C | Sur |16.00 km/h | 87.00% | 0.00 hPa
  • 22-01-2020 23:00:00 | 0.00°C | Sur |14.00 km/h | 91.00% | 0.00 hPa
  • 22-01-2020 22:00:00 | 0.00°C | Sur |13.00 km/h | 91.00% | 0.00 hPa
    • diseño web asturias Información sobre el estado de las mareas, altura de la marejada, temperatura del agua y otros datos de Gijón en Asturias.

      Surf Gijón